Location: Moscow
(38.8570°N, 84.2291°W)
Time: 19:18:40
(UTC+00:00)

Timation 2 Rocket - Pass Details

Date: 15 November 2025
Orbit: 904 x 1074 km, 70.0° (Epoch: 12 December)

Event Time Altitude Azimuth Distance (km) Brightness Sun altitude
Rises 22:51:06 0° 187° (S) 3,816 7.5 -5.9°
Reaches altitude 10° 22:53:45 10° 183° (S) 2,879 6.8 -6.4°
Maximum altitude 23:00:20 55° 108° (ESE) 1,277 4.4 -7.6°
Drops below altitude 10° 23:07:00 10° 33° (NNE) 2,909 6.0 -8.9°
Sets 23:09:40 0° 29° (NNE) 3,859 6.7 -9.4°
